This is the latest recevied weather packets stored in our database for station/object K3HW. If no packets are shown the sender has not sent any weather packets the latest 10 day(s).
| Time | Temp. | Humidity | Pressure | Rain* | Wind** | Luminosity | Snow |
|---|---|---|---|---|---|---|---|
| 1777681169 | 13.33° C | 53% | 1014.9 hPa | 0 mm | - | 0 W/m² | - |
| 1777680866 | 13.89° C | 53% | 1014.9 hPa | 0 mm | - | 0 W/m² | - |
| 1777680564 | 14.44° C | 53% | 1014.7 hPa | 0 mm | - | 0 W/m² | - |
| 1777680262 | 14.44° C | 51% | 1015 hPa | 0 mm | - | 0 W/m² | - |
| 1777679958 | 15° C | 51% | 1014.9 hPa | 0 mm | - | 1 W/m² | - |
| 1777679654 | 15° C | 48% | 1014.8 hPa | 0 mm | - | 2 W/m² | - |
| 1777679349 | 15° C | 50% | 1014.6 hPa | 0 mm | - | 3 W/m² | - |
| 1777679046 | 15.56° C | 49% | 1014.7 hPa | 0 mm | - | 4 W/m² | - |
| 1777678745 | 15.56° C | 47% | 1014.7 hPa | 0 mm | - | 5 W/m² | - |
| 1777678441 | 15.56° C | 48% | 1014.7 hPa | 0 mm | - | 7 W/m² | - |
| 1777678137 | 16.11° C | 46% | 1014.4 hPa | 0 mm | - | 8 W/m² | - |
| 1777677835 | 16.11° C | 46% | 1014.5 hPa | 0 mm | - | 11 W/m² | - |
| 1777677532 | 16.67° C | 46% | 1014.3 hPa | 0 mm | - | 13 W/m² | - |
| 1777677230 | 16.67° C | 45% | 1014.1 hPa | 0 mm | - | 17 W/m² | - |
| 1777676928 | 16.67° C | 44% | 1014.3 hPa | 0 mm | - | 20 W/m² | - |
| 1777676627 | 17.22° C | 43% | 1014.3 hPa | 0 mm | - | 21 W/m² | - |
| 1777676324 | 17.22° C | 44% | 1014.3 hPa | 0 mm | - | 20 W/m² | - |
| 1777676022 | 17.22° C | 43% | 1014 hPa | 0 mm | - | 25 W/m² | - |
| 1777675717 | 17.78° C | 42% | 1014 hPa | 0 mm | - | 27 W/m² | - |
| 1777675415 | 17.22° C | 43% | 1014.1 hPa | 0 mm | - | 58 W/m² | - |
| 1777675111 | 17.22° C | 43% | 1014.1 hPa | 0 mm | - | 32 W/m² | - |
| 1777674807 | 17.22° C | 47% | 1014.2 hPa | 0 mm | - | 22 W/m² | - |
| 1777674503 | 17.22° C | 43% | 1014.4 hPa | 0 mm | - | 27 W/m² | - |
| 1777674202 | 17.78° C | 43% | 1014.3 hPa | 0 mm | - | 47 W/m² | - |
| 1777673898 | 17.78° C | 44% | 1014.5 hPa | 0 mm | - | 76 W/m² | - |
* Rain latest hour (hover to see other rain measurements)
** Current wind speed in m/s (hover to see current wind gust speed)